Regional Weather Roundup
Issued by NWS

Home | Current Version | Previous Version | Graphics & Text | Print | Product List | Glossary On
Versions: 1 2 3 4 5 6 7 8 9 10 11 12 13 14 15 16 17 18 19 20 21 22 23 24 25 26 27 28 29 30 31 32 33 34 35 36 37 38 39 40 41 42 43 44 45 46 47 48 49 50
000
ASUS43 KOAX 290502
RWRNE
WEATHER ROUNDUP FOR NEBRASKA
NATIONAL WEATHER SERVICE OMAHA NE
1200 AM CDT FRI MAY 29 2015

NOTES: SATELLITE DATA IS BEING USED TO AUGMENT CLOUD COVER ABOVE
       12000 FEET.
       "FAIR" INDICATES FEW OR NO CLOUDS BELOW 12,000 FEET WITH NO
       SIGNIFICANT WEATHER AND/OR OBSTRUCTIONS TO VISIBILITY.

  * THESE STATIONS DO NOT REPORT WEATHER SUCH AS RAIN...SNOW OR FOG.

NEZ001>004-019>022-054>056-290600-
NEBRASKA PANHANDLE

CITY           SKY/WX    TMP DP  RH WIND       PRES   REMARKS
SCOTTSBLUFF    CLOUDY    57  50  77 W7        30.08R
ALLIANCE       CLOUDY    55  52  89 NW8       30.06R
CHADRON        CLOUDY    54  52  93 W8        30.04R
SIDNEY         LGT RAIN  54  50  86 N17G26    30.09R
$$

NEZ057>060-069>072-079>082-290600-
SOUTHWEST NEBRASKA

CITY           SKY/WX    TMP DP  RH WIND       PRES   REMARKS
NORTH PLATTE   CLOUDY    57  55  93 W9        29.97R
IMPERIAL       CLOUDY    56  51  84 W10       30.01R
MCCOOK         CLOUDY    56  53  90 SW9       29.95R
$$

NEZ005>010-023>029-035>040-094-290600-
NORTH CENTRAL NEBRASKA

CITY           SKY/WX    TMP DP  RH WIND       PRES   REMARKS
VALENTINE      CLOUDY    59  54  83 NW5       29.92F
BROKEN BOW     CLOUDY    60  58  92 SW3       29.89F
ORD            CLOUDY    60  56  86 CALM      29.90S
$$

NEZ041-046>049-061>064-073>077-083>087-290600-
SOUTH CENTRAL NEBRASKA

CITY           SKY/WX    TMP DP  RH WIND       PRES   REMARKS
GRAND ISLAND   TSTM      61  58  90 S8        29.94S FOG
HASTINGS       CLOUDY    63  59  87 CALM      29.93F
KEARNEY *      CLOUDY    61  55  82 SE7       29.93R
$$

NEZ011>018-030>034-042>045-290600-
NORTHEAST NEBRASKA

CITY           SKY/WX    TMP DP  RH WIND       PRES   REMARKS
NORFOLK        CLOUDY    69  64  84 S13       29.89R
COLUMBUS *     CLOUDY    66  61  82 S7        29.91S
TEKAMAH        PTCLDY    66  64  93 SE9       29.91S
$$

NEZ050>053-065>068-078-088>093-290600-
SOUTHEAST NEBRASKA

CITY           SKY/WX    TMP DP  RH WIND       PRES   REMARKS
LINCOLN        CLOUDY    69  65  86 S13       29.92F
OMAHA EPPLEY   CLOUDY    68  64  87 SE13      29.92F
FALLS CITY     PTCLDY    66  63  90 S9        29.94F
$$

NEZ044-045-051>053-067-290600-
OMAHA AREA

CITY           SKY/WX    TMP DP  RH WIND       PRES   REMARKS
OMAHA EPPLEY   CLOUDY    68  64  87 SE13      29.92F
OFFUTT AFB     MOCLDY    66  64  92 SE8       29.92F
$$



USA.gov is the U.S. government's official web portal to all federal, state and local government web resources and services.